User: anonymous   Login
Location: Unspecified
(0.0000°N, 0.0000°E)
Time: 00:07:49
(UTC+00:00)
Language:

STARLINK-30842 - Orbit

View from above orbital plane
View from above orbital plane
View from above satellite
View from above satellite

Ground track
Ground track

The orbit is defined by the following mean orbital elements,

1 58357U          26145.05738824 +.00000000 +00000-0 +11094-2 0 00003
2 58357  43.0106 265.8303 0004074 305.3416  54.7055 15.27005593    01
Epoch (UTC): 25 May 2026 01:22:38
Eccentricity: 0.0004074
inclination: 43.0106°
perigee height: 482 km
apogee height: 488 km
right ascension of ascending node: 265.8303°
argument of perigee: 305.3416°
revolutions per day: 15.27005593
mean anomaly at epoch: 54.7055°

The dashed part of the orbit path shows where the satellite is in the earth's shadow,  

DLR